Total_Precipitation_Accumulation
0.50 0.48 0.46 0.41 0.38 0.37 0.37 0.38 0.40 0.41 0.42 0.46 0.50 0.52 0.54 0.54 0.55 0.58 0.58 0.64 0.70 0.75 0.79 0.91 1.00 1.02 1.06 1.11 1.20 1.29 1.44 1.57 1.44 1.22 1.17 1.22 1.28 1.25 1.09 0.90 0.75 0.69 0.59
0.63 0.69 0.76 0.73 0.66 0.56 0.43 0.39 0.43 0.48 0.49 0.50 0.53 0.54 0.52 0.55 0.64 0.70 0.70 0.74 0.79 0.81 0.82 0.84 0.84 0.89 1.00 1.02 1.08 1.12 1.23 1.43 1.39 1.30 1.33 1.37 1.39 1.33 1.25 1.07 0.88 0.77 0.71
0.90 1.05 1.17 1.15 0.96 0.73 0.54 0.46 0.47 0.51 0.55 0.56 0.62 0.69 0.71 0.71 0.72 0.77 0.83 0.85 0.78 0.74 0.74 0.73 0.71 0.73 0.79 0.87 0.97 0.96 0.98 1.11 1.25 1.33 1.43 1.50 1.57 1.46 1.28 1.15 1.02 0.93 0.74
0.75 0.96 1.10 1.15 0.97 0.74 0.59 0.51 0.45 0.44 0.47 0.52 0.61 0.71 0.81 0.87 0.89 0.85 0.80 0.78 0.73 0.68 0.63 0.60 0.61 0.65 0.67 0.72 0.81 0.86 0.88 0.97 1.11 1.21 1.38 1.58 1.61 1.65 1.52 1.31 1.21 1.15 0.91
0.46 0.63 0.77 0.87 0.72 0.52 0.40 0.34 0.33 0.37 0.44 0.56 0.67 0.77 0.90 0.97 0.91 0.87 0.78 0.73 0.71 0.64 0.57 0.52 0.50 0.49 0.52 0.59 0.61 0.67 0.76 0.86 0.90 0.99 1.14 1.39 1.53 1.64 1.60 1.41 1.27 1.29 1.16
0.38 0.46 0.56 0.61 0.51 0.36 0.24 0.19 0.24 0.32 0.40 0.49 0.56 0.63 0.66 0.62 0.62 0.59 0.54 0.53 0.54 0.51 0.49 0.48 0.44 0.40 0.42 0.43 0.41 0.47 0.55 0.61 0.72 0.86 0.94 1.14 1.35 1.44 1.56 1.64 1.52 1.37 1.32
0.42 0.42 0.48 0.53 0.46 0.33 0.21 0.19 0.23 0.30 0.36 0.40 0.42 0.46 0.47 0.48 0.38 0.33 0.31 0.32 0.38 0.40 0.43 0.45 0.36 0.30 0.37 0.41 0.38 0.33 0.35 0.38 0.46 0.65 0.78 0.89 1.12 1.33 1.51 1.67 1.67 1.60 1.51
0.42 0.44 0.54 0.60 0.56 0.45 0.37 0.34 0.36 0.39 0.41 0.42 0.41 0.41 0.46 0.43 0.33 0.25 0.22 0.22 0.28 0.31 0.37 0.42 0.43 0.39 0.38 0.42 0.43 0.38 0.33 0.33 0.35 0.41 0.51 0.68 0.94 1.32 1.53 1.59 1.72 1.76 1.73
0.41 0.48 0.54 0.64 0.66 0.59 0.55 0.52 0.53 0.52 0.50 0.47 0.44 0.44 0.48 0.49 0.38 0.25 0.22 0.24 0.31 0.32 0.35 0.41 0.46 0.46 0.44 0.35 0.38 0.39 0.38 0.38 0.32 0.35 0.41 0.53 0.72 0.99 1.38 1.52 1.56 1.51 1.48
0.42 0.48 0.54 0.65 0.73 0.68 0.66 0.66 0.64 0.65 0.59 0.55 0.50 0.53 0.57 0.62 0.55 0.33 0.27 0.30 0.36 0.42 0.52 0.53 0.46 0.41 0.39 0.32 0.36 0.43 0.40 0.37 0.40 0.41 0.41 0.43 0.48 0.64 0.94 1.18 1.23 1.20 1.11
0.42 0.47 0.58 0.74 0.81 0.79 0.82 0.84 0.80 0.75 0.73 0.73 0.67 0.66 0.71 0.73 0.66 0.40 0.31 0.35 0.42 0.52 0.56 0.58 0.53 0.44 0.33 0.30 0.33 0.41 0.41 0.42 0.54 0.57 0.56 0.55 0.57 0.61 0.69 0.86 1.04 1.09 1.01
0.45 0.53 0.67 0.77 0.71 0.67 0.84 0.92 0.93 0.93 0.89 0.87 0.85 0.80 0.80 0.83 0.70 0.50 0.34 0.38 0.48 0.59 0.62 0.63 0.65 0.49 0.36 0.34 0.34 0.35 0.36 0.38 0.48 0.58 0.56 0.53 0.54 0.55 0.58 0.72 0.90 1.00 1.07
0.59 0.65 0.74 0.79 0.85 0.93 0.99 1.00 1.03 1.05 1.00 0.93 0.93 0.91 0.91 0.96 0.89 0.51 0.40 0.45 0.53 0.62 0.66 0.66 0.63 0.53 0.42 0.39 0.42 0.41 0.38 0.40 0.48 0.55 0.55 0.48 0.46 0.52 0.63 0.78 0.91 1.03 1.06
0.66 0.67 0.71 0.79 0.85 1.00 1.16 1.14 1.08 1.06 1.08 1.05 1.01 0.96 0.96 1.01 1.01 0.81 0.64 0.67 0.70 0.73 0.72 0.71 0.63 0.60 0.53 0.50 0.52 0.47 0.43 0.48 0.53 0.55 0.58 0.61 0.61 0.65 0.69 0.75 0.85 0.94 1.00
0.76 0.71 0.72 0.78 0.87 1.01 1.12 1.18 1.11 1.05 0.91 0.90 0.90 0.90 0.87 0.91 0.94 0.82 0.77 0.87 0.96 0.97 0.92 0.93 0.87 0.81 0.71 0.65 0.66 0.67 0.66 0.69 0.65 0.65 0.71 0.77 0.76 0.71 0.69 0.73 0.85 0.88 0.85
0.95 0.90 0.87 0.87 0.90 0.94 1.00 0.99 0.86 0.76 0.63 0.58 0.57 0.58 0.57 0.60 0.68 0.65 0.64 0.76 0.87 0.94 0.93 0.94 0.93 0.89 0.82 0.82 0.85 0.84 0.81 0.81 0.78 0.79 0.82 0.86 0.88 0.81 0.75 0.75 0.83 0.87 0.81
1.03 1.01 0.99 0.92 0.93 0.97 1.01 1.06 1.03 0.87 0.70 0.58 0.47 0.41 0.42 0.46 0.56 0.59 0.63 0.73 0.83 0.90 0.90 0.91 0.89 0.89 0.85 0.85 0.88 0.89 0.85 0.86 0.89 0.90 0.90 0.92 0.96 0.95 0.90 0.84 0.82 0.85 0.84
1.00 0.99 0.96 0.93 0.91 0.94 0.97 1.00 1.06 1.10 1.00 0.83 0.63 0.48 0.42 0.42 0.46 0.55 0.64 0.75 0.87 0.89 0.88 0.90 0.90 0.90 0.89 0.87 0.85 0.88 0.90 0.93 0.92 0.89 0.91 0.93 0.97 0.97 0.98 0.91 0.83 0.79 0.81
0.95 0.93 0.89 0.91 0.92 0.91 0.93 0.95 0.96 1.03 1.04 0.98 0.84 0.66 0.54 0.47 0.47 0.57 0.63 0.71 0.88 0.93 0.93 0.92 0.89 0.85 0.85 0.86 0.86 0.85 0.85 0.86 0.87 0.92 0.91 0.90 0.95 0.93 0.88 0.85 0.84 0.82 0.82
0.97 0.89 0.83 0.83 0.87 0.88 0.90 0.93 0.92 0.99 1.01 1.02 0.92 0.76 0.63 0.54 0.56 0.61 0.66 0.79 0.95 0.98 0.94 0.89 0.88 0.83 0.83 0.85 0.86 0.85 0.84 0.84 0.87 0.95 0.95 0.92 0.91 0.86 0.79 0.78 0.81 0.82 0.78
0.96 0.87 0.75 0.73 0.76 0.81 0.86 0.89 0.88 0.91 0.92 0.95 0.85 0.65 0.55 0.52 0.58 0.67 0.76 0.89 0.99 0.94 0.89 0.85 0.85 0.80 0.78 0.77 0.77 0.78 0.80 0.83 0.85 0.89 0.91 0.91 0.91 0.86 0.79 0.78 0.82 0.85 0.84
0.98 0.90 0.78 0.67 0.65 0.72 0.78 0.83 0.86 0.86 0.86 0.86 0.78 0.59 0.50 0.47 0.54 0.63 0.71 0.80 0.86 0.85 0.83 0.82 0.78 0.71 0.69 0.70 0.71 0.76 0.80 0.81 0.84 0.88 0.88 0.90 0.94 0.89 0.86 0.82 0.80 0.82 0.86
0.90 0.84 0.75 0.59 0.58 0.64 0.72 0.82 0.83 0.78 0.80 0.80 0.71 0.59 0.53 0.54 0.56 0.62 0.69 0.73 0.75 0.79 0.78 0.73 0.67 0.64 0.63 0.64 0.66 0.70 0.74 0.78 0.78 0.80 0.81 0.84 0.89 0.88 0.87 0.83 0.77 0.80 0.82
0.76 0.77 0.73 0.56 0.53 0.66 0.75 0.81 0.78 0.71 0.73 0.71 0.62 0.57 0.55 0.57 0.58 0.59 0.63 0.66 0.69 0.69 0.68 0.65 0.58 0.53 0.53 0.56 0.59 0.60 0.61 0.62 0.63 0.67 0.69 0.72 0.77 0.81 0.83 0.82 0.79 0.80 0.84
0.71 0.70 0.73 0.62 0.54 0.63 0.73 0.77 0.74 0.68 0.64 0.58 0.52 0.52 0.52 0.52 0.54 0.57 0.61 0.66 0.67 0.63 0.59 0.55 0.57 0.56 0.53 0.52 0.54 0.57 0.55 0.49 0.48 0.53 0.58 0.64 0.67 0.75 0.76 0.73 0.74 0.80 0.84
0.70 0.69 0.72 0.69 0.62 0.63 0.70 0.73 0.71 0.63 0.56 0.50 0.47 0.48 0.51 0.51 0.53 0.56 0.57 0.60 0.62 0.63 0.61 0.58 0.56 0.53 0.50 0.47 0.45 0.46 0.44 0.39 0.37 0.41 0.46 0.54 0.61 0.68 0.70 0.69 0.67 0.72 0.76